Résultats de la compétition "Moyenne distance Larchant (77)" du 17-03-2007 organisée par le comité départemental du 77 - Seine-et-Marne
     
  Télécharger le fichier CSV.  
     
     

 Circuit "Circuit C"

Licence Nom Prénom Temps CN
précédent
Score sur
la course
Différence
11307BEAUVISAGELauriane0:20:50N/A4671N/A
8359MONTERRATAmandine0:21:44N/A4478N/A
10745MAINERoxane0:22:12N/A4383N/A
922PREVOSTPascale0:23:42N/A4106N/A
13937ERTELKelly0:23:43N/A4103N/A
15896DANELJulien0:23:43N/A4103N/A
14829VANELMarie0:24:34N/A3961N/A
4372PETITGuyonne0:24:42N/A3940N/A
9869CORDEIRO MENDESMagalie0:24:52N/A3913N/A
7218LEROYAgathe0:25:21N/A3839N/A
8108LELOUPAnouk0:25:42N/A3786N/A
633DUBROCAMonique0:25:57N/A3750N/A
9932BASSETIsia0:26:04N/A3733N/A
8761BRUNELMarie-Jo0:26:15N/A3707N/A
8637JOUBERTGisele0:27:35N/A3528N/A
13674BLUMMarie0:27:35N/A3528N/A
9427LERICHEClotilde0:27:48N/A3500N/A
8922ROULLEAUXNoemie0:28:01N/A3473N/A
17406CAMPBELLJane0:28:22N/A3430N/A
8921ROULLEAUXMaeva0:28:37N/A3401N/A
14911LAMINETTEPauline0:29:42N/A3276N/A
12237SUDRESMathilde0:31:03N/A3134N/A
16082PFLIEGEROceane0:32:11N/A3024N/A
2401DEVILLENelly0:33:16N/A2925N/A
7045LOTERIELaurine0:33:23N/A2915N/A
841GATYDaniele0:33:52N/A2873N/A
6779MAKOVICKAElsa0:34:47N/A2798N/A
17027CHAVANCEManon0:35:12N/A2765N/A
9475GIREFlorie0:35:17N/A2758N/A
15582CIRAUDOAndrea0:35:23N/A2750N/A
17028PIERREMaxime0:37:16N/A2611N/A
18611LANQUETINCéline0:37:35N/A2589N/A
10077POURREMarion0:37:35N/A2589N/A
17577FACHAUXAngélique0:39:28N/A2466N/A
3302JEANPIERREM-Therese0:39:52N/A2441N/A
931SIMONETMarie0:40:32N/A2401N/A
2927CALANDOTMichelle0:40:49N/A2384N/A
5607LAMBERTNadine0:41:13N/A2361N/A
17067MANIEREMarie0:42:59N/A2264N/A
2115SXAYMichelle0:43:02N/A2261N/A
4671POGUPaulette0:43:55N/A2216N/A
17071VANHAUWAERTClaire0:44:09N/A2204N/A
17284TERRASSONHelene0:44:22N/A2193N/A
1400HERMETM-Pierre0:46:04N/A2112N/A
17184ALVAREZClaude0:46:05N/A2112N/A
12191JOUBERTCamille0:46:13N/A2106N/A
1992MOULINPatricia0:46:48N/A2079N/A
701ABISSEGisele0:46:54N/A2075N/A
14478LADEVEZECharlotte0:47:30N/A2049N/A
10073COULONAnnick0:48:13N/A2018N/A
6094LEROUEILM-Paule0:49:10N/A1979N/A
12768LOGELucie0:50:22N/A1932N/A
2761PAPILLONFrancoise0:51:07N/A1904N/A
895GOFFREMaryvonne0:53:56N/A1804N/A
2406LIONNETM-Jeanne0:55:02N/A1768N/A
18566RESMONDNathalie0:55:42N/A1747N/A
11101MARTINNoemie0:56:35N/A1720N/A
6980BIGOTYvette0:56:55N/A1710N/A
9278BOUSSERElodie0:57:53N/A1681N/A
14623GILBERTFrancine0:59:21N/A1640N/A
14002DUBOISSylvie0:59:51N/A1626N/A
4733KOWALCZYKCorinne1:02:48N/A1550N/A
363THIERRY-FISCHERChri1:03:24N/A1535N/A
1380DIEUDONNEMadeleine1:08:20N/A1424N/A
13592MAUGERAngeline1:09:07N/A1408N/A
18285GAERTNERCéline1:21:07N/A1200N/A
562DUBOISAnnie1:23:42N/A1163N/A
15894LUDEWIG-JAMESCarol1:34:12N/A1033N/A
837PROSTValerieN/AN/A0N/A
7910MOUGELDanielleN/AN/A0N/A

  Indice de confiance du circuit (moyenne des différences entre CN et score sur la course des 3 à 10 premiers) : 150






 Retour